| time (UTC) | temp F | wind direction | speed MPH | gust MPH | rain 1hr in | rain 24hr in | rain mn in | humidity % | barometer mb |
| 20260904133159 | 79 | 144 | 3.0 | 8.0 | 0.00 | 0.00 | 0.00 | 1014.4 | |
| 20260904132639 | 79 | 148 | 5.0 | 8.0 | 0.00 | 0.00 | 0.00 | 1014.4 | |
| 20260904132205 | 79 | 129 | 6.0 | 8.0 | 0.00 | 0.00 | 0.00 | 1014.3 | |
| 20260904131640 | 79 | 130 | 4.0 | 9.0 | 0.00 | 0.00 | 0.00 | 1014.3 | |
| 20260904131205 | 79 | 135 | 5.0 | 9.0 | 0.00 | 0.00 | 0.00 | 1014.4 | |
| 20260904130642 | 79 | 150 | 4.0 | 6.0 | 0.00 | 0.00 | 0.00 | 1014.3 | |
| 20260904130206 | 79 | 110 | 4.0 | 8.0 | 0.00 | 0.00 | 0.00 | 1014.2 | |
| 20260904125643 | 79 | 137 | 5.0 | 8.0 | 0.00 | 0.00 | 0.00 | 1014.2 | |
| 20260904125212 | 79 | 126 | 3.0 | 7.0 | 0.00 | 0.00 | 0.00 | 1014.1 | |
| 20260904124632 | 79 | 113 | 4.0 | 6.0 | 0.00 | 0.00 | 0.00 | 1014.1 | |
| 20260904124201 | 79 | 110 | 3.0 | 6.0 | 0.00 | 0.00 | 0.00 | 1013.9 | |
| 20260904123630 | 79 | 100 | 2.0 | 7.0 | 0.00 | 0.00 | 0.00 | 1013.7 | |
| 20260904123203 | 79 | 157 | 5.0 | 7.0 | 0.00 | 0.00 | 0.00 | 1013.8 | |
| 20260904122632 | 79 | 142 | 4.0 | 7.0 | 0.00 | 0.00 | 0.00 | 1013.7 | |
| 20260904122121 | 79 | 124 | 3.0 | 5.0 | 0.00 | 0.00 | 0.00 | 1013.7 | |
| 20260904121658 | 79 | 151 | 3.0 | 6.0 | 0.00 | 0.00 | 0.00 | 1013.8 | |
| 20260904121204 | 79 | 131 | 3.0 | 7.0 | 0.00 | 0.00 | 0.00 | 1013.7 | |
| 20260904120641 | 78 | 146 | 5.0 | 7.0 | 0.00 | 0.00 | 0.00 | 1013.7 | |
| 20260904120206 | 78 | 154 | 4.0 | 6.0 | 0.00 | 0.00 | 0.00 | 1013.5 | |
| 20260904115647 | 78 | 180 | 3.0 | 7.0 | 0.00 | 0.00 | 0.00 | 1013.4 | |
| 20260904115155 | 78 | 155 | 2.0 | 7.0 | 0.00 | 0.00 | 0.00 | 1013.3 | |
| 20260904114631 | 78 | 140 | 3.0 | 7.0 | 0.00 | 0.00 | 0.00 | 1013.3 | |
| 20260904114200 | 78 | 136 | 2.0 | 5.0 | 0.00 | 0.00 | 0.00 | 1013.2 | |
| 20260904113630 | 78 | 129 | 2.0 | 5.0 | 0.00 | 0.00 | 0.00 | 1013.2 | |
| 20260904113146 | 78 | 130 | 2.0 | 6.0 | 0.00 | 0.00 | 0.00 | 1013.1 | |
| 20260904112616 | 78 | 98 | 3.0 | 6.0 | 0.00 | 0.00 | 0.00 | 1013.1 | |
| 20260904112141 | 78 | 122 | 3.0 | 6.0 | 0.00 | 0.00 | 0.00 | 1013.1 | |
| 20260904111718 | 78 | 152 | 3.0 | 7.0 | 0.00 | 0.00 | 0.00 | 1013.1 | |
| 20260904111128 | 78 | 146 | 5.0 | 7.0 | 0.00 | 0.00 | 0.00 | 1013.0 | |
| 20260904110705 | 78 | 150 | 4.0 | 5.0 | 0.00 | 0.00 | 0.00 | 1013.1 | |
| 20260904110114 | 78 | 160 | 3.0 | 4.0 | 0.00 | 0.00 | 0.00 | 1013.1 | |
| 20260904105651 | 78 | 120 | 2.0 | 3.0 | 0.00 | 0.00 | 0.00 | 1013.2 | |
| 20260904105121 | 78 | 100 | 2.0 | 5.0 | 0.00 | 0.00 | 0.00 | 1013.1 | |
| 20260904104650 | 78 | 123 | 2.0 | 4.0 | 0.00 | 0.00 | 0.00 | 1013.2 | |
| 20260904104145 | 78 | 101 | 1.0 | 4.0 | 0.00 | 0.00 | 0.00 | 1013.1 | |
| 20260904103614 | 78 | 167 | 2.0 | 5.0 | 0.00 | 0.00 | 0.00 | 1013.0 | |
| 20260904103142 | 78 | 151 | 2.0 | 5.0 | 0.00 | 0.00 | 0.00 | 1013.0 | |
| 20260904102623 | 78 | 150 | 2.0 | 5.0 | 0.00 | 0.00 | 0.00 | 1013.0 | |
| 20260904102152 | 78 | 138 | 2.0 | 5.0 | 0.00 | 0.00 | 0.00 | 1013.0 | |
| 20260904101628 | 78 | 166 | 2.0 | 5.0 | 0.00 | 0.00 | 0.00 | 1012.9 | |
| 20260904101157 | 79 | 155 | 3.0 | 5.0 | 0.00 | 0.00 | 0.00 | 1012.8 | |
| 20260904100634 | 79 | 162 | 2.0 | 5.0 | 0.00 | 0.00 | 0.00 | 1012.9 | |
| 20260904100201 | 79 | 165 | 3.0 | 6.0 | 0.00 | 0.00 | 0.00 | 1012.9 | |
| 20260904095717 | 79 | 176 | 2.0 | 6.0 | 0.00 | 0.00 | 0.00 | 1012.8 | |
| 20260904095157 | 79 | 181 | 3.0 | 6.0 | 0.00 | 0.00 | 0.00 | 1012.8 | |
| 20260904094644 | 79 | 146 | 2.0 | 6.0 | 0.00 | 0.00 | 0.00 | 1012.8 | |
| 20260904094118 | 79 | 153 | 3.0 | 6.0 | 0.00 | 0.00 | 0.00 | 1012.8 | |
| 20260904093625 | 79 | 151 | 4.0 | 6.0 | 0.00 | 0.00 | 0.00 | 1012.9 | |
| 20260904093202 | 79 | 131 | 3.0 | 7.0 | 0.00 | 0.00 | 0.00 | 1012.8 | |
| 20260904092732 | 79 | 142 | 4.0 | 8.0 | 0.00 | 0.00 | 0.00 | 1012.7 | |
| 20260904092149 | 79 | 163 | 2.0 | 7.0 | 0.00 | 0.00 | 0.00 | 1012.8 | |
| 20260904091618 | 79 | 146 | 4.0 | 8.0 | 0.00 | 0.00 | 0.00 | 1012.8 | |
| 20260904091154 | 79 | 173 | 6.0 | 8.0 | 0.00 | 0.00 | 0.00 | 1012.8 | |
| 20260904090622 | 79 | 169 | 4.0 | 7.0 | 0.00 | 0.00 | 0.00 | 1012.8 | |
| 20260904090151 | 79 | 149 | 4.0 | 8.0 | 0.00 | 0.00 | 0.00 | 1012.8 | |
| 20260904085625 | 79 | 166 | 4.0 | 8.0 | 0.00 | 0.00 | 0.00 | 1012.8 | |
| 20260904085131 | 79 | 159 | 3.0 | 8.0 | 0.00 | 0.00 | 0.00 | 1012.7 | |
| 20260904084704 | 79 | 158 | 4.0 | 9.0 | 0.00 | 0.00 | 0.00 | 1012.8 | |
| 20260904084202 | 79 | 167 | 4.0 | 9.0 | 0.00 | 0.00 | 0.00 | 1012.7 | |
| 20260904083632 | 79 | 168 | 4.0 | 8.0 | 0.00 | 0.00 | 0.00 | 1012.7 | |
| 20260904083206 | 79 | 143 | 5.0 | 9.0 | 0.00 | 0.00 | 0.00 | 1012.7 | |
| 20260904082614 | 79 | 175 | 5.0 | 10.0 | 0.00 | 0.00 | 0.00 | 1012.7 | |
| 20260904082147 | 79 | 166 | 5.0 | 8.0 | 0.00 | 0.00 | 0.00 | 1012.8 | |
| 20260904081657 | 79 | 159 | 3.0 | 6.0 | 0.00 | 0.00 | 0.00 | 1012.8 | |
| 20260904081130 | 79 | 159 | 2.0 | 5.0 | 0.00 | 0.00 | 0.00 | 1013.0 | |
| 20260904080655 | 79 | 148 | 4.0 | 7.0 | 0.00 | 0.00 | 0.00 | 1013.0 | |
| 20260904080125 | 79 | 208 | 2.0 | 7.0 | 0.00 | 0.00 | 0.00 | 1013.0 | |
| 20260904075653 | 79 | 141 | 0.0 | 6.0 | 0.00 | 0.00 | 0.00 | 1013.0 | |
| 20260904075129 | 79 | 161 | 3.0 | 6.0 | 0.00 | 0.00 | 0.00 | 1013.0 | |
| 20260904074634 | 79 | 171 | 4.0 | 7.0 | 0.00 | 0.00 | 0.00 | 1013.1 | |
| 20260904074157 | 80 | 152 | 3.0 | 7.0 | 0.00 | 0.00 | 0.00 | 1013.2 | |
| 20260904073632 | 80 | 139 | 3.0 | 7.0 | 0.00 | 0.00 | 0.00 | 1013.2 | |
| 20260904073149 | 80 | 148 | 4.0 | 7.0 | 0.00 | 0.00 | 0.00 | 1013.2 | |
| 20260904072615 | 80 | 163 | 2.0 | 6.0 | 0.00 | 0.00 | 0.00 | 1013.2 | |
| 20260904072150 | 80 | 138 | 4.0 | 8.0 | 0.00 | 0.00 | 0.00 | 1013.2 | |
| 20260904071619 | 80 | 153 | 4.0 | 8.0 | 0.00 | 0.00 | 0.00 | 1013.3 | |
| 20260904071146 | 80 | 145 | 5.0 | 9.0 | 0.00 | 0.00 | 0.00 | 1013.3 | |
| 20260904070650 | 80 | 135 | 6.0 | 9.0 | 0.00 | 0.00 | 0.00 | 1013.4 | |
| 20260904070147 | 80 | 149 | 6.0 | 9.0 | 0.00 | 0.00 | 0.00 | 1013.5 | |
| 20260904065626 | 80 | 151 | 4.0 | 8.0 | 0.00 | 0.00 | 0.00 | 1013.4 | |
| 20260904065135 | 80 | 158 | 4.0 | 7.0 | 0.00 | 0.00 | 0.00 | 1013.5 | |
| 20260904064617 | 80 | 178 | 3.0 | 8.0 | 0.00 | 0.00 | 0.00 | 1013.6 | |
| 20260904064144 | 80 | 130 | 4.0 | 8.0 | 0.00 | 0.00 | 0.00 | 1013.6 | |
| 20260904063625 | 80 | 112 | 4.0 | 8.0 | 0.00 | 0.00 | 0.00 | 1013.6 | |
| 20260904063134 | 80 | 165 | 5.0 | 8.0 | 0.00 | 0.00 | 0.00 | 1013.6 | |
| 20260904062615 | 80 | 146 | 5.0 | 8.0 | 0.00 | 0.00 | 0.00 | 1013.5 | |
| 20260904062129 | 80 | 143 | 6.0 | 8.0 | 0.00 | 0.00 | 0.00 | 1013.6 | |
| 20260904061634 | 80 | 146 | 4.0 | 9.0 | 0.00 | 0.00 | 0.00 | 1013.5 | |
| 20260904061113 | 80 | 151 | 6.0 | 10.0 | 0.00 | 0.00 | 0.00 | 1013.6 | |
| 20260904060642 | 81 | 166 | 6.0 | 10.0 | 0.00 | 0.00 | 0.00 | 1013.5 | |
| 20260904060123 | 81 | 132 | 6.0 | 10.0 | 0.00 | 0.00 | 0.00 | 1013.6 | |
| 20260904055652 | 81 | 139 | 6.0 | 10.0 | 0.00 | 0.00 | 0.00 | 1013.6 | |
| 20260904055118 | 81 | 158 | 5.0 | 10.0 | 0.00 | 0.00 | 0.00 | 1013.4 | |
| 20260904054620 | 81 | 169 | 6.0 | 9.0 | 0.00 | 0.00 | 0.00 | 1013.5 | |
| 20260904054130 | 81 | 156 | 5.0 | 12.0 | 0.00 | 0.00 | 0.00 | 1013.4 | |
| 20260904053632 | 81 | 153 | 5.0 | 14.0 | 0.00 | 0.00 | 0.00 | 1013.4 | |
| 20260904053136 | 81 | 161 | 8.0 | 14.0 | 0.00 | 0.00 | 0.00 | 1013.4 | |
| 20260904052637 | 82 | 159 | 4.0 | 10.0 | 0.00 | 0.00 | 0.00 | 1013.4 | |
| 20260904052124 | 82 | 152 | 5.0 | 12.0 | 0.00 | 0.00 | 0.00 | 1013.3 | |
| 20260904051626 | 82 | 164 | 7.0 | 13.0 | 0.00 | 0.00 | 0.00 | 1013.3 | |
| 20260904051129 | 82 | 159 | 7.0 | 13.0 | 0.00 | 0.00 | 0.00 | 1013.1 | |
| 20260904050637 | 82 | 163 | 7.0 | 12.0 | 0.00 | 0.00 | 0.00 | 1013.0 | |
| 20260904050115 | 82 | 137 | 9.0 | 12.0 | 0.00 | 0.00 | 0.00 | 1013.1 | |
| 20260904045650 | 82 | 155 | 5.0 | 10.0 | 0.00 | 0.00 | 0.00 | 1013.2 | |
| 20260904045127 | 82 | 151 | 6.0 | 9.0 | 0.00 | 0.00 | 0.00 | 1013.2 | |
| 20260904044653 | 83 | 160 | 5.0 | 9.0 | 0.00 | 0.00 | 0.00 | 1013.2 | |
| 20260904044143 | 83 | 135 | 4.0 | 12.0 | 0.00 | 0.00 | 0.00 | 1013.1 | |
| 20260904043616 | 83 | 151 | 7.0 | 10.0 | 0.00 | 0.00 | 0.00 | 1013.0 | |
| 20260904043153 | 83 | 139 | 5.0 | 10.0 | 0.00 | 0.00 | 0.00 | 1012.9 | |
| 20260904042701 | 83 | 147 | 6.0 | 11.0 | 0.00 | 0.00 | 0.00 | 1013.1 | |
| 20260904042137 | 83 | 149 | 5.0 | 11.0 | 0.00 | 0.00 | 0.00 | 1013.1 | |
| 20260904041637 | 83 | 150 | 6.0 | 9.0 | 0.00 | 0.00 | 0.00 | 1013.1 | |
| 20260904041149 | 84 | 151 | 5.0 | 9.0 | 0.00 | 0.00 | 0.00 | 1013.2 | |
| 20260904040615 | 84 | 123 | 4.0 | 11.0 | 0.00 | 0.00 | 0.00 | 1013.2 | |
| 20260904040149 | 84 | 123 | 7.0 | 11.0 | 0.00 | 0.00 | 0.00 | 1013.1 | |
| 20260904035618 | 84 | 126 | 3.0 | 11.0 | 0.00 | 0.00 | 0.00 | 1013.1 | |
| 20260904035153 | 84 | 135 | 7.0 | 11.0 | 0.00 | 0.00 | 0.00 | 1013.1 | |
| 20260904034620 | 84 | 148 | 4.0 | 11.0 | 0.00 | 0.00 | 0.00 | 1013.0 | |
| 20260904034149 | 84 | 155 | 6.0 | 11.0 | 0.00 | 0.00 | 0.00 | 1012.9 | |
| 20260904033625 | 85 | 145 | 5.0 | 9.0 | 0.00 | 0.00 | 0.00 | 1012.8 | |
| 20260904033133 | 85 | 140 | 5.0 | 11.0 | 0.00 | 0.00 | 0.00 | 1012.7 | |
| 20260904032706 | 85 | 147 | 6.0 | 11.0 | 0.00 | 0.00 | 0.00 | 1012.6 | |
| 20260904032135 | 85 | 137 | 6.0 | 11.0 | 0.00 | 0.00 | 0.00 | 1012.6 | |
| 20260904031644 | 85 | 120 | 5.0 | 12.0 | 0.00 | 0.00 | 0.00 | 1012.5 | |
| 20260904031208 | 85 | 137 | 6.0 | 11.0 | 0.00 | 0.00 | 0.00 | 1012.4 | |
| 20260904030642 | 85 | 116 | 7.0 | 21.0 | 0.00 | 0.00 | 0.00 | 1012.4 | |
| 20260904030209 | 85 | 129 | 6.0 | 15.0 | 0.00 | 0.00 | 0.00 | 1012.3 | |
| 20260904025643 | 85 | 125 | 9.0 | 15.0 | 0.00 | 0.00 | 0.00 | 1012.2 | |
| 20260904025116 | 85 | 138 | 7.0 | 13.0 | 0.00 | 0.00 | 0.00 | 1012.2 | |
| 20260904024645 | 85 | 132 | 5.0 | 12.0 | 0.00 | 0.00 | 0.00 | 1012.2 | |
| 20260904024207 | 85 | 112 | 7.0 | 11.0 | 0.00 | 0.00 | 0.00 | 1012.0 | |
| 20260904023635 | 85 | 143 | 6.0 | 10.0 | 0.00 | 0.00 | 0.00 | 1012.0 | |
| 20260904023150 | 85 | 116 | 4.0 | 8.0 | 0.00 | 0.00 | 0.00 | 1012.0 | |
| 20260904022657 | 85 | 144 | 4.0 | 7.0 | 0.00 | 0.00 | 0.00 | 1011.9 | |
| 20260904022124 | 85 | 115 | 3.0 | 7.0 | 0.00 | 0.00 | 0.00 | 1011.9 | |
| 20260904021702 | 85 | 107 | 1.0 | 6.0 | 0.00 | 0.00 | 0.00 | 1011.8 | |
| 20260904021131 | 85 | 134 | 2.0 | 6.0 | 0.00 | 0.00 | 0.00 | 1011.6 | |
| 20260904020658 | 86 | 119 | 3.0 | 6.0 | 0.00 | 0.00 | 0.00 | 1011.6 | |
| 20260904020117 | 86 | 98 | 3.0 | 6.0 | 0.00 | 0.00 | 0.00 | 1011.6 | |
| 20260904015647 | 86 | 126 | 2.0 | 7.0 | 0.00 | 0.00 | 0.00 | 1011.5 | |
| 20260904015223 | 86 | 88 | 4.0 | 8.0 | 0.00 | 0.00 | 0.00 | 1011.3 | |
| 20260904014629 | 86 | 139 | 5.0 | 10.0 | 0.00 | 0.00 | 0.00 | 1011.4 | |
| 20260904014139 | 86 | 116 | 4.0 | 10.0 | 0.00 | 0.00 | 0.00 | 1011.4 | |
| 20260904013654 | 86 | 77 | 5.0 | 10.0 | 0.00 | 0.00 | 0.00 | 1011.3 | |
| 20260904013200 | 86 | 92 | 6.0 | 10.0 | 0.00 | 0.00 | 0.00 | 1011.3 | |
| 20260904012636 | 87 | 101 | 5.0 | 11.0 | 0.00 | 0.00 | 0.00 | 1011.2 | |
| 20260904012146 | 87 | 113 | 7.0 | 12.0 | 0.00 | 0.00 | 0.00 | 1011.2 | |
| 20260904011633 | 87 | 111 | 7.0 | 12.0 | 0.00 | 0.00 | 0.00 | 1011.0 | |
| 20260904011209 | 87 | 116 | 8.0 | 13.0 | 0.00 | 0.00 | 0.00 | 1011.0 | |
| 20260904010617 | 87 | 110 | 7.0 | 14.0 | 0.00 | 0.00 | 0.00 | 1011.0 | |
| 20260904010151 | 88 | 126 | 9.0 | 14.0 | 0.00 | 0.00 | 0.00 | 1010.9 | |
| 20260904005625 | 88 | 119 | 7.0 | 13.0 | 0.00 | 0.00 | 0.00 | 1010.9 | |
| 20260904005200 | 88 | 109 | 6.0 | 14.0 | 0.00 | 0.00 | 0.00 | 1010.8 | |
| 20260904004628 | 89 | 89 | 8.0 | 16.0 | 0.00 | 0.00 | 0.00 | 1010.7 | |
| 20260904004137 | 89 | 124 | 10.0 | 20.0 | 0.00 | 0.00 | 0.00 | 1010.7 | |
| 20260904003614 | 90 | 90 | 11.0 | 20.0 | 0.00 | 0.00 | 0.00 | 1010.6 | |
| 20260904003142 | 91 | 115 | 10.0 | 19.0 | 0.00 | 0.00 | 0.00 | 1010.6 | |
| 20260904002617 | 91 | 120 | 9.0 | 20.0 | 0.00 | 0.00 | 0.00 | 1010.4 | |
| 20260904002145 | 92 | 123 | 11.0 | 18.0 | 0.00 | 0.00 | 0.00 | 1010.4 | |
| 20260904001659 | 93 | 105 | 11.0 | 19.0 | 0.00 | 0.00 | 0.00 | 1010.2 | |
| 20260904000706 | 94 | 85 | 10.0 | 15.0 | 0.00 | 0.00 | 0.00 | 1010.3 | |
| 20260904000135 | 94 | 163 | 7.0 | 12.0 | 0.00 | 0.00 | 0.00 | 1010.2 | |
| 20260903235642 | 94 | 126 | 6.0 | 12.0 | 0.00 | 0.00 | 0.00 | 1010.1 | |
| 20260903235115 | 94 | 115 | 7.0 | 14.0 | 0.00 | 0.00 | 0.00 | 1010.1 | |
| 20260903234642 | 94 | 130 | 5.0 | 14.0 | 0.00 | 0.00 | 0.00 | 1010.0 | |
| 20260903234118 | 94 | 117 | 9.0 | 14.0 | 0.00 | 0.00 | 0.00 | 1010.0 | |
| 20260903233647 | 94 | 129 | 5.0 | 11.0 | 0.00 | 0.00 | 0.00 | 1010.1 | |
| 20260903233201 | 94 | 84 | 7.0 | 13.0 | 0.00 | 0.00 | 0.00 | 1010.1 | |
| 20260903232634 | 94 | 113 | 7.0 | 13.0 | 0.00 | 0.00 | 0.00 | 1010.0 | |
| 20260903232150 | 94 | 131 | 4.0 | 13.0 | 0.00 | 0.00 | 0.00 | 1010.0 | |
| 20260903231619 | 94 | 106 | 9.0 | 13.0 | 0.00 | 0.00 | 0.00 | 1009.9 | |
| 20260903231155 | 94 | 132 | 8.0 | 15.0 | 0.00 | 0.00 | 0.00 | 1009.9 | |
| 20260903230618 | 94 | 161 | 9.0 | 15.0 | 0.00 | 0.00 | 0.00 | 1009.9 | |
| 20260903230154 | 94 | 107 | 9.0 | 15.0 | 0.00 | 0.00 | 0.00 | 1009.9 | |
| 20260903225621 | 94 | 98 | 8.0 | 15.0 | 0.00 | 0.00 | 0.00 | 1009.9 | |
| 20260903225149 | 94 | 136 | 6.0 | 13.0 | 0.00 | 0.00 | 0.00 | 1009.8 | |
| 20260903224624 | 95 | 126 | 8.0 | 14.0 | 0.00 | 0.00 | 0.00 | 1009.8 | |
| 20260903224131 | 95 | 140 | 8.0 | 16.0 | 0.00 | 0.00 | 0.00 | 1009.8 | |
| 20260903223706 | 97 | 117 | 10.0 | 16.0 | 0.00 | 0.00 | 0.00 | 1009.7 | |
| 20260903223138 | 98 | 119 | 9.0 | 13.0 | 0.00 | 0.00 | 0.00 | 1009.7 | |
| 20260903222713 | 99 | 122 | 8.0 | 14.0 | 0.00 | 0.00 | 0.00 | 1009.5 | |
| 20260903222121 | 100 | 153 | 8.0 | 14.0 | 0.00 | 0.00 | 0.00 | 1009.4 | |
| 20260903221658 | 100 | 78 | 9.0 | 12.0 | 0.00 | 0.00 | 0.00 | 1009.4 | |
| 20260903221146 | 100 | 170 | 5.0 | 14.0 | 0.00 | 0.00 | 0.00 | 1009.3 | |
| 20260903220615 | 100 | 156 | 8.0 | 11.0 | 0.00 | 0.00 | 0.00 | 1009.5 | |
| 20260903220152 | 99 | 126 | 3.0 | 15.0 | 0.00 | 0.00 | 0.00 | 1009.4 | |
| 20260903215640 | 99 | 71 | 8.0 | 15.0 | 0.00 | 0.00 | 0.00 | 1009.5 | |
| 20260903215116 | 100 | 113 | 3.0 | 11.0 | 0.00 | 0.00 | 0.00 | 1009.6 | |
| 20260903214644 | 99 | 101 | 4.0 | 9.0 | 0.00 | 0.00 | 0.00 | 1009.6 | |
| 20260903214220 | 99 | 98 | 5.0 | 10.0 | 0.00 | 0.00 | 0.00 | 1009.7 | |
| 20260903213633 | 99 | 190 | 4.0 | 12.0 | 0.00 | 0.00 | 0.00 | 1009.7 | |
| 20260903213142 | 98 | 138 | 7.0 | 11.0 | 0.00 | 0.00 | 0.00 | 1009.8 | |
| 20260903212710 | 98 | 119 | 6.0 | 14.0 | 0.00 | 0.00 | 0.00 | 1009.9 | |
| 20260903212224 | 98 | 119 | 6.0 | 14.0 | 0.00 | 0.00 | 0.00 | 1009.9 | |
| 20260903211632 | 98 | 158 | 6.0 | 12.0 | 0.00 | 0.00 | 0.00 | 1010.0 | |
| 20260903211142 | 99 | 130 | 5.0 | 8.0 | 0.00 | 0.00 | 0.00 | 1010.1 | |
| 20260903210657 | 98 | 168 | 2.0 | 10.0 | 0.00 | 0.00 | 0.00 | 1010.1 | |
| 20260903210224 | 98 | 51 | 6.0 | 10.0 | 0.00 | 0.00 | 0.00 | 1010.1 | |
| 20260903205640 | 99 | 167 | 1.0 | 11.0 | 0.00 | 0.00 | 0.00 | 1010.3 | |
| 20260903205148 | 99 | 149 | 6.0 | 11.0 | 0.00 | 0.00 | 0.00 | 1010.5 | |
| 20260903204621 | 99 | 116 | 4.0 | 8.0 | 0.00 | 0.00 | 0.00 | 1010.4 | |
| 20260903204156 | 99 | 143 | 5.0 | 9.0 | 0.00 | 0.00 | 0.00 | 1010.5 | |
| 20260903203642 | 98 | 175 | 5.0 | 10.0 | 0.00 | 0.00 | 0.00 | 1010.6 | |
| 20260903203154 | 98 | 123 | 4.0 | 10.0 | 0.00 | 0.00 | 0.00 | 1010.7 | |
| 20260903202723 | 98 | 109 | 5.0 | 11.0 | 0.00 | 0.00 | 0.00 | 1010.7 | |
| 20260903202126 | 99 | 113 | 8.0 | 13.0 | 0.00 | 0.00 | 0.00 | 1010.7 | |
| 20260903201653 | 98 | 190 | 6.0 | 13.0 | 0.00 | 0.00 | 0.00 | 1010.8 | |
| 20260903201148 | 99 | 145 | 4.0 | 10.0 | 0.00 | 0.00 | 0.00 | 1010.9 | |
| 20260903200615 | 99 | 128 | 7.0 | 12.0 | 0.00 | 0.00 | 0.00 | 1010.9 | |
| 20260903200144 | 99 | 112 | 5.0 | 10.0 | 0.00 | 0.00 | 0.00 | 1011.0 | |
| 20260903195616 | 99 | 236 | 5.0 | 10.0 | 0.00 | 0.00 | 0.00 | 1011.0 | |
| 20260903195146 | 98 | 207 | 5.0 | 10.0 | 0.00 | 0.00 | 0.00 | 1010.9 | |
| 20260903194718 | 98 | 237 | 6.0 | 10.0 | 0.00 | 0.00 | 0.00 | 1011.1 | |
| 20260903194129 | 98 | 165 | 6.0 | 11.0 | 0.00 | 0.00 | 0.00 | 1011.1 | |
| 20260903193146 | 99 | 170 | 7.0 | 13.0 | 0.00 | 0.00 | 0.00 | 1011.3 | |
| 20260903192655 | 98 | 188 | 2.0 | 11.0 | 0.00 | 0.00 | 0.00 | 1011.3 | |
| 20260903192131 | 98 | 195 | 7.0 | 11.0 | 0.00 | 0.00 | 0.00 | 1011.4 | |
| 20260903191701 | 98 | 116 | 3.0 | 10.0 | 0.00 | 0.00 | 0.00 | 1011.5 | |
| 20260903191130 | 98 | 213 | 6.0 | 12.0 | 0.00 | 0.00 | 0.00 | 1011.7 | |
| 20260903190643 | 98 | 207 | 5.0 | 12.0 | 0.00 | 0.00 | 0.00 | 1011.8 | |
| 20260903190114 | 97 | 246 | 4.0 | 13.0 | 0.00 | 0.00 | 0.00 | 1011.9 | |
| 20260903185651 | 96 | 161 | 6.0 | 13.0 | 0.00 | 0.00 | 0.00 | 1012.0 | |
| 20260903185120 | 96 | 150 | 7.0 | 15.0 | 0.00 | 0.00 | 0.00 | 1012.1 | |
| 20260903184649 | 96 | 141 | 6.0 | 15.0 | 0.00 | 0.00 | 0.00 | 1012.3 | |
| 20260903184225 | 96 | 189 | 6.0 | 14.0 | 0.00 | 0.00 | 0.00 | 1012.3 | |
| 20260903183632 | 96 | 143 | 4.0 | 10.0 | 0.00 | 0.00 | 0.00 | 1012.4 | |
| 20260903183204 | 96 | 225 | 6.0 | 13.0 | 0.00 | 0.00 | 0.00 | 1012.5 | |
| 20260903182632 | 96 | 213 | 6.0 | 13.0 | 0.00 | 0.00 | 0.00 | 1012.5 | |
| 20260903182140 | 96 | 195 | 5.0 | 9.0 | 0.00 | 0.00 | 0.00 | 1012.6 | |
| 20260903181617 | 95 | 176 | 5.0 | 10.0 | 0.00 | 0.00 | 0.00 | 1012.7 | |
| 20260903181147 | 95 | 225 | 5.0 | 12.0 | 0.00 | 0.00 | 0.00 | 1012.7 | |
| 20260903180622 | 94 | 196 | 5.0 | 12.0 | 0.00 | 0.00 | 0.00 | 1012.8 | |
| 20260903180151 | 94 | 196 | 6.0 | 13.0 | 0.00 | 0.00 | 0.00 | 1012.9 | |
| 20260903175143 | 94 | 210 | 6.0 | 12.0 | 0.00 | 0.00 | 0.00 | 1013.0 | |
| 20260903174649 | 94 | 146 | 7.0 | 14.0 | 0.00 | 0.00 | 0.00 | 1013.1 | |
| 20260903174204 | 94 | 154 | 8.0 | 14.0 | 0.00 | 0.00 | 0.00 | 1013.1 | |
| 20260903173632 | 93 | 194 | 5.0 | 10.0 | 0.00 | 0.00 | 0.00 | 1013.2 | |
| 20260903173151 | 93 | 168 | 6.0 | 13.0 | 0.00 | 0.00 | 0.00 | 1013.2 | |
| 20260903172623 | 93 | 173 | 8.0 | 13.0 | 0.00 | 0.00 | 0.00 | 1013.3 | |
| 20260903172159 | 93 | 154 | 8.0 | 13.0 | 0.00 | 0.00 | 0.00 | 1013.4 | |
| 20260903171623 | 93 | 157 | 6.0 | 12.0 | 0.00 | 0.00 | 0.00 | 1013.4 | |
| 20260903171131 | 92 | 209 | 6.0 | 12.0 | 0.00 | 0.00 | 0.00 | 1013.4 | |
| 20260903170635 | 91 | 170 | 4.0 | 14.0 | 0.00 | 0.00 | 0.00 | 1013.5 | |
| 20260903170209 | 91 | 181 | 8.0 | 14.0 | 0.00 | 0.00 | 0.00 | 1013.7 | |
| 20260903165638 | 91 | 171 | 7.0 | 12.0 | 0.00 | 0.00 | 0.00 | 1013.7 | |
| 20260903165153 | 90 | 163 | 4.0 | 10.0 | 0.00 | 0.00 | 0.00 | 1013.7 | |
| 20260903164620 | 90 | 173 | 7.0 | 12.0 | 0.00 | 0.00 | 0.00 | 1013.7 | |
| 20260903164156 | 90 | 204 | 5.0 | 12.0 | 0.00 | 0.00 | 0.00 | 1013.8 | |
| 20260903163627 | 90 | 167 | 7.0 | 12.0 | 0.00 | 0.00 | 0.00 | 1013.9 | |
| 20260903163204 | 89 | 185 | 6.0 | 12.0 | 0.00 | 0.00 | 0.00 | 1013.9 | |
| 20260903162712 | 89 | 190 | 6.0 | 12.0 | 0.00 | 0.00 | 0.00 | 1013.9 | |
| 20260903162147 | 89 | 158 | 7.0 | 10.0 | 0.00 | 0.00 | 0.00 | 1013.9 | |
| 20260903161616 | 89 | 155 | 7.0 | 11.0 | 0.00 | 0.00 | 0.00 | 1013.9 | |
| 20260903161155 | 89 | 220 | 6.0 | 11.0 | 0.00 | 0.00 | 0.00 | 1013.9 | |
| 20260903160622 | 89 | 173 | 5.0 | 13.0 | 0.00 | 0.00 | 0.00 | 1013.8 | |
| 20260903160131 | 89 | 190 | 7.0 | 13.0 | 0.00 | 0.00 | 0.00 | 1013.8 | |
| 20260903155640 | 89 | 206 | 5.0 | 8.0 | 0.00 | 0.00 | 0.00 | 1013.8 | |
| 20260903155121 | 88 | 195 | 4.0 | 11.0 | 0.00 | 0.00 | 0.00 | 1013.8 | |
| 20260903154649 | 88 | 184 | 6.0 | 11.0 | 0.00 | 0.00 | 0.00 | 1013.9 | |
| 20260903154125 | 88 | 180 | 6.0 | 13.0 | 0.00 | 0.00 | 0.00 | 1013.9 | |
| 20260903153655 | 88 | 197 | 6.0 | 13.0 | 0.00 | 0.00 | 0.00 | 1013.9 | |
| 20260903153207 | 88 | 181 | 5.0 | 13.0 | 0.00 | 0.00 | 0.00 | 1013.9 | |
| 20260903152616 | 87 | 171 | 5.0 | 10.0 | 0.00 | 0.00 | 0.00 | 1013.8 | |
| 20260903152152 | 87 | 213 | 5.0 | 11.0 | 0.00 | 0.00 | 0.00 | 1013.8 | |
| 20260903151621 | 86 | 200 | 5.0 | 11.0 | 0.00 | 0.00 | 0.00 | 1013.8 | |
| 20260903151150 | 85 | 208 | 6.0 | 12.0 | 0.00 | 0.00 | 0.00 | 1013.8 | |
| 20260903150631 | 85 | 199 | 9.0 | 12.0 | 0.00 | 0.00 | 0.00 | 1013.8 | |
| 20260903150200 | 85 | 171 | 6.0 | 15.0 | 0.00 | 0.00 | 0.00 | 1013.9 | |
| 20260903145636 | 84 | 223 | 10.0 | 15.0 | 0.00 | 0.00 | 0.00 | 1014.0 | |
| 20260903145203 | 84 | 205 | 8.0 | 13.0 | 0.00 | 0.00 | 0.00 | 1014.0 | |
| 20260903144640 | 84 | 175 | 7.0 | 12.0 | 0.00 | 0.00 | 0.00 | 1014.0 | |
| 20260903144206 | 84 | 166 | 5.0 | 12.0 | 0.00 | 0.00 | 0.00 | 1013.9 | |
| 20260903143643 | 84 | 177 | 9.0 | 13.0 | 0.00 | 0.00 | 0.00 | 1014.0 | |
| 20260903143212 | 83 | 190 | 8.0 | 15.0 | 0.00 | 0.00 | 0.00 | 1014.0 | |
| 20260903142718 | 83 | 215 | 8.0 | 15.0 | 0.00 | 0.00 | 0.00 | 1014.0 | |
| 20260903142113 | 83 | 194 | 8.0 | 12.0 | 0.00 | 0.00 | 0.00 | 1014.1 | |
| 20260903141641 | 83 | 190 | 6.0 | 11.0 | 0.00 | 0.00 | 0.00 | 1014.1 | |
| 20260903141215 | 82 | 171 | 6.0 | 14.0 | 0.00 | 0.00 | 0.00 | 1014.2 | |
| 20260903140625 | 82 | 220 | 9.0 | 14.0 | 0.00 | 0.00 | 0.00 | 1014.2 | |
| 20260903140202 | 81 | 169 | 6.0 | 10.0 | 0.00 | 0.00 | 0.00 | 1014.2 | |
| 20260903135630 | 81 | 165 | 4.0 | 11.0 | 0.00 | 0.00 | 0.00 | 1014.2 | |
| 20260903135200 | 81 | 215 | 7.0 | 11.0 | 0.00 | 0.00 | 0.00 | 1014.2 | |
| 20260903134628 | 80 | 216 | 5.0 | 9.0 | 0.00 | 0.00 | 0.00 | 1014.3 | |
| 20260903134204 | 80 | 211 | 6.0 | 13.0 | 0.00 | 0.00 | 0.00 | 1014.3 | |
| 20260903133632 | 80 | 213 | 5.0 | 13.0 | 0.00 | 0.00 | 0.00 | 1014.3 |